#timestamp,LO_Frequency,Hit,StdDev 
1555804815.3,286046993.8,N
1555804835.1,286046994.3,N
1555804836.0,286046994.3,Y
1555804855.8,286046997.9,P
1555804875.7,286046995.5,P
1555804895.5,286046996.2,P
1555804915.3,286046993.7,Y
1555804935.2,286046998.8,P
1555804955.0,286046996.6,N
1555804955.9,286046996.6,P
1555804975.8,286047001.2,N
1555804995.6,286047001.2,N
1555805015.4,286046998.2,N
1555805035.3,286046999.4,N
1555805055.1,286046998.8,N
1555805075.9,286046996.5,N
1555805095.7,286046998.4,N
1555805115.5,286046996.6,N
1555805135.4,286047000.8,N
1555805155.2,286047000.7,N
1555805175.0,286047002.6,N
1555805175.9,286047002.6,N
1555805195.8,286047001.5,N
1555805215.6,286047003.6,N
1555805235.5,286047001.9,N
1555805255.3,286047002.6,N
1555805275.1,286047001.0,N
1555805295.9,286047000.3,N
1555805315.7,286047000.1,N
1555805335.5,286047000.5,N
1555805355.4,286047000.7,N
1555805375.2,286047001.0,N
1555805395.1,286047000.5,N
1555805396.0,286047000.5,N
1555805415.8,286047001.0,N
1555805435.6,286046998.8,N
1555805455.5,286046999.0,N
1555805475.3,286047000.8,N
1555805495.2,286046996.5,N
1555805515.9,286046999.2,N
1555805535.7,286046999.2,N
1555805555.6,286047000.6,N
1555805575.6,286047000.8,N
1555805595.5,286047004.4,N
1555805615.3,286047003.8,N
1555805635.1,286047002.2,N
1555805655.9,286047003.9,N
1555805675.7,286047002.6,N
1555805695.5,286047001.9,N
1555805715.4,286047004.0,N
1555805735.2,286047005.6,Y
1555805755.1,286047004.2,P
1555805756.0,286047004.2,N
1555805775.8,286047003.2,N
1555805795.6,286047002.9,N
1555805815.5,286047002.0,N
1555805835.3,286047000.2,N
1555805855.1,286047002.6,N
1555805875.9,286047001.9,N
1555805895.7,286046998.2,N
1555805915.6,286047002.2,N
1555805935.4,286047002.7,N
1555805955.2,286046999.4,N
1555805975.1,286047000.6,N
1555805976.0,286047000.6,N
1555805995.8,286047002.8,N
1555806015.6,286047001.5,N
1555806035.5,286047000.1,N
1555806055.3,286047001.8,N
1555806075.2,286047002.4,N
1555806095.9,286047001.8,N
1555806115.7,286047002.5,N
1555806135.6,286047004.0,N
1555806155.4,286047000.8,N
1555806175.2,286047000.5,N
1555806195.1,286046999.4,N
1555806196.0,286046999.4,N
1555806215.8,286046999.2,N
1555806235.7,286046999.3,N
1555806255.5,286046998.9,N
1555806275.3,286047000.1,N
1555806295.2,286047003.9,N
1555806315.9,286047004.3,N
1555806335.7,286047004.4,N
1555806355.6,286047003.2,N
1555806375.4,286047002.9,N
1555806395.2,286047004.3,N
1555806415.1,286047003.9,N
1555806416.0,286047003.9,N
1555806435.8,286047001.7,N
1555806455.7,286047005.9,Y
1555806475.5,286047000.3,P
1555806495.3,286047000.7,N
1555806515.2,286046998.4,N
1555806535.0,286047000.6,N
1555806535.9,286047000.6,N
1555806555.8,286047000.6,N
1555806575.6,286047001.8,N
1555806595.4,286047001.3,N
1555806615.3,286047000.3,N
1555806635.1,286046999.7,N
1555806655.8,286046999.9,N
1555806675.7,286047004.4,Y
1555806695.5,286047003.7,P
1555806715.4,286047005.2,P
1555806735.2,286047005.7,N
1555806755.0,286047005.0,N
1555806755.9,286047005.0,N
1555806775.8,286047005.8,Y
1555806795.6,286047000.9,P
1555806815.5,286046997.7,N
1555806835.3,286046996.3,N
1555806855.1,286046997.9,N
1555806875.9,286046996.9,N
1555806895.7,286046997.5,N
1555806915.5,286046997.6,N
1555806935.4,286046996.0,N
1555806955.2,286046993.8,N
1555806975.1,286046996.0,N
1555806995.9,286046995.1,N
1555807015.7,286046999.4,N
1555807035.6,286046995.5,N
1555807055.4,286046993.8,N
1555807075.2,286046996.1,N
1555807095.1,286046996.1,N
1555807096.0,286046996.1,N
1555807115.8,286046994.3,N
1555807135.7,286046991.7,Y
1555807155.5,286046997.6,P
1555807175.3,286046995.0,P
1555807195.2,286046997.9,N
1555807215.0,286046995.0,Y
1555807215.9,286046995.0,P
1555807235.8,286047000.1,N
1555807255.6,286047002.2,N
1555807275.4,286047004.3,N
1555807295.3,286047001.7,N
1555807315.1,286047002.1,N
1555807335.8,286047003.3,N
1555807355.7,286047004.7,N
1555807375.5,286047007.3,N
1555807395.3,286047009.2,N
1555807415.2,286047008.7,N
1555807435.0,286047008.1,N
1555807435.9,286047008.1,N
1555807455.8,286047008.2,N
1555807505.6,286047008.9,E
1555807515.5,286047004.4,N
1555807535.4,286046997.2,P
1555807555.2,286046997.5,N
1555807575.0,286046995.3,N
1555807575.9,286046995.3,N
1555807595.8,286046995.2,N
1555807615.6,286046997.1,N
1555807635.5,286046999.6,N
1555807655.3,286046998.4,N
1555807675.1,286046999.3,N
1555807695.8,286046996.5,N
1555807715.6,286046995.9,N
1555807735.5,286046995.8,N
1555807755.3,286046995.6,N
1555807775.1,286046998.0,N
1555807795.9,286046993.7,N
1555807815.7,286046995.9,N
1555807835.5,286046992.6,Y
1555807855.4,286046994.0,P
1555807875.2,286046995.3,P
1555807895.1,286046996.5,N
1555807896.0,286046996.5,N
1555807915.8,286046999.3,N
1555807935.6,286046998.4,N
1555807955.5,286047000.9,N
1555807975.3,286047000.9,N
1555807995.1,286047002.5,N
1555808015.9,286047002.8,N
1555808035.7,286047001.3,N
1555808055.6,286047001.6,N
1555808075.4,286047003.1,N
1555808095.2,286047001.7,N
1555808115.1,286047002.5,N
1555808116.0,286047002.5,N
1555808135.8,286047002.1,N
1555808155.7,286047001.5,N
1555808175.5,286047002.6,N
1555808195.3,286047003.9,N
1555808215.2,286047005.6,N
1555808235.0,286047003.8,N
1555808235.9,286047003.8,N
1555808255.8,286047001.8,N
1555808275.6,286046999.8,N
1555808295.4,286047000.2,N
1555808315.3,286047002.3,N
1555808335.1,286047002.7,N
1555808355.8,286047002.3,N
1555808375.7,286046999.7,N
1555808395.5,286047001.1,N
